• In Belarus
  • List of Countries
  • For 7 days
  • Water Temperature
  • Satellite Maps
  • Weather Map
  • Weather Widgets
  • user-avatar
    Login

    Hourly Weather Namibe

    Today, 16 December, Saturday

    Time Temperature Precipitation Wind Pressure Humidity
    00:00 +28°C° 0 mm 4 mps 756 mmHg 51%
    01:00 +28°C° 0 mm 4 mps 756 mmHg 52%
    02:00 +28°C° 0 mm 4 mps 756 mmHg 54%
    03:00 +27°C° 0 mm 4 mps 756 mmHg 55%
    04:00 +26°C° 0 mm 3 mps 756 mmHg 57%
    05:00 +27°C° 0 mm 3 mps 756 mmHg 57%
    06:00 +27°C° 0 mm 3 mps 756 mmHg 56%
    07:00 +27°C° 0 mm 3 mps 757 mmHg 57%
    08:00 +29°C° 0 mm 3 mps 757 mmHg 50%
    09:00 +31°C° 0 mm 3 mps 757 mmHg 44%
    10:00 +34°C° 0 mm 3 mps 757 mmHg 37%
    11:00 +35°C° 0 mm 4 mps 756 mmHg 38%
    12:00 +35°C° 0 mm 5 mps 756 mmHg 38%
    13:00 +38°C° 0 mm 6 mps 755 mmHg 35%
    14:00 +35°C° 0 mm 6 mps 755 mmHg 40%
    15:00 +33°C° 0 mm 6 mps 755 mmHg 45%
    16:00 +30°C° 0 mm 6 mps 755 mmHg 50%
    17:00 +29°C° 0 mm 5 mps 756 mmHg 53%
    18:00 +28°C° 0 mm 4 mps 756 mmHg 57%
    19:00 +28°C° 0 mm 4 mps 757 mmHg 60%
    20:00 +28°C° 0.1 mm 4 mps 757 mmHg 60%
    21:00 +28°C° 0.1 mm 4 mps 758 mmHg 61%
    22:00 +28°C° 0.1 mm 4 mps 758 mmHg 61%
    23:00 +28°C° 0.2 mm 4 mps 758 mmHg 61%

    Tomorrow, 17 December, Sunday

    Time Temperature Precipitation Wind Pressure Humidity
    00:00 +28°C° 0.2 mm 4 mps 758 mmHg 62%
    01:00 +28°C° 0.2 mm 4 mps 757 mmHg 62%
    02:00 +28°C° 0 mm 4 mps 757 mmHg 64%
    03:00 +27°C° 0 mm 3 mps 756 mmHg 67%
    04:00 +27°C° 0 mm 3 mps 756 mmHg 69%
    05:00 +27°C° 0 mm 3 mps 757 mmHg 68%
    06:00 +27°C° 0 mm 2 mps 757 mmHg 68%
    07:00 +27°C° 0 mm 2 mps 757 mmHg 67%
    08:00 +29°C° 0 mm 2 mps 757 mmHg 63%
    09:00 +30°C° 0 mm 2 mps 757 mmHg 60%
    10:00 +31°C° 0 mm 2 mps 758 mmHg 56%
    11:00 +33°C° 0 mm 3 mps 757 mmHg 54%
    12:00 +34°C° 0 mm 4 mps 757 mmHg 51%
    13:00 +35°C° 0 mm 5 mps 756 mmHg 48%
    14:00 +34°C° 0 mm 5 mps 756 mmHg 51%
    15:00 +33°C° 0 mm 5 mps 756 mmHg 54%
    16:00 +32°C° 0 mm 5 mps 755 mmHg 57%
    17:00 +30°C° 0 mm 5 mps 756 mmHg 60%
    18:00 +29°C° 0 mm 4 mps 756 mmHg 63%
    19:00 +28°C° 0 mm 4 mps 757 mmHg 66%
    20:00 +28°C° 0 mm 3 mps 757 mmHg 66%
    21:00 +28°C° 0 mm 3 mps 758 mmHg 65%
    22:00 +28°C° 0 mm 2 mps 758 mmHg 65%
    23:00 +28°C° 0.1 mm 2 mps 758 mmHg 64%

    Day after tomorrow, 18 December, Monday

    Time Temperature Precipitation Wind Pressure Humidity
    00:00 +28°C° 0.1 mm 2 mps 758 mmHg 63%
    01:00 +28°C° 0.1 mm 2 mps 758 mmHg 62%
    02:00 +28°C° 0 mm 2 mps 757 mmHg 63%
    03:00 +28°C° 0 mm 2 mps 757 mmHg 65%
    04:00 +27°C° 0 mm 3 mps 757 mmHg 66%
    05:00 +27°C° 0 mm 2 mps 757 mmHg 67%
    06:00 +27°C° 0 mm 2 mps 757 mmHg 69%
    07:00 +27°C° 0 mm 2 mps 758 mmHg 70%
    08:00 +29°C° 0 mm 2 mps 758 mmHg 63%
    09:00 +31°C° 0 mm 3 mps 758 mmHg 56%
    10:00 +34°C° 0 mm 3 mps 758 mmHg 49%
    11:00 +34°C° 0 mm 4 mps 757 mmHg 48%
    12:00 +35°C° 0 mm 5 mps 757 mmHg 47%
    13:00 +35°C° 0 mm 5 mps 756 mmHg 46%
    14:00 +34°C° 0 mm 5 mps 756 mmHg 49%
    15:00 +34°C° 0 mm 5 mps 755 mmHg 51%
    16:00 +33°C° 0 mm 5 mps 755 mmHg 54%
    17:00 +32°C° 0 mm 4 mps 755 mmHg 58%
    18:00 +30°C° 0 mm 4 mps 756 mmHg 62%
    19:00 +29°C° 0 mm 3 mps 756 mmHg 66%
    20:00 +28°C° 0 mm 3 mps 756 mmHg 68%
    21:00 +28°C° 0 mm 3 mps 757 mmHg 69%
    22:00 +28°C° 0 mm 2 mps 757 mmHg 71%
    23:00 +27°C° 0 mm 2 mps 757 mmHg 72%

    19 December, Tuesday

    Time Temperature Precipitation Wind Pressure Humidity
    00:00 +27°C° 0 mm 2 mps 757 mmHg 74%
    01:00 +27°C° 0 mm 2 mps 756 mmHg 75%
    02:00 +26°C° 0 mm 2 mps 756 mmHg 76%
    03:00 +26°C° 0 mm 2 mps 756 mmHg 77%
    04:00 +26°C° 0 mm 1 mps 755 mmHg 78%
    05:00 +26°C° 0 mm 1 mps 756 mmHg 78%
    06:00 +26°C° 0 mm 1 mps 756 mmHg 78%
    07:00 +26°C° 0 mm 1 mps 757 mmHg 77%
    08:00 +28°C° 0 mm 2 mps 757 mmHg 71%
    09:00 +30°C° 0 mm 2 mps 757 mmHg 65%
    10:00 +33°C° 0 mm 3 mps 757 mmHg 59%
    11:00 +33°C° 0 mm 4 mps 757 mmHg 56%
    12:00 +34°C° 0 mm 5 mps 756 mmHg 54%
    13:00 +34°C° 0 mm 5 mps 756 mmHg 52%
    14:00 +34°C° 0 mm 5 mps 755 mmHg 54%
    15:00 +33°C° 0 mm 5 mps 755 mmHg 56%
    16:00 +32°C° 0 mm 5 mps 755 mmHg 58%
    17:00 +30°C° 0 mm 4 mps 755 mmHg 63%
    18:00 +29°C° 0 mm 4 mps 756 mmHg 67%
    19:00 +28°C° 0 mm 3 mps 756 mmHg 72%
    20:00 +27°C° 0 mm 3 mps 757 mmHg 73%
    21:00 +27°C° 0 mm 2 mps 757 mmHg 73%
    22:00 +27°C° 0 mm 2 mps 757 mmHg 74%
    23:00 +27°C° 0 mm 2 mps 757 mmHg 75%

    20 December, Wednesday

    Time Temperature Precipitation Wind Pressure Humidity
    00:00 +27°C° 0 mm 2 mps 757 mmHg 75%
    01:00 +27°C° 0 mm 2 mps 756 mmHg 76%
    02:00 +27°C° 0 mm 2 mps 756 mmHg 77%
    03:00 +26°C° 0 mm 2 mps 756 mmHg 78%
    04:00 +26°C° 0 mm 2 mps 756 mmHg 79%
    05:00 +26°C° 0 mm 2 mps 756 mmHg 79%
    06:00 +26°C° 0 mm 1 mps 757 mmHg 80%
    07:00 +26°C° 0 mm 1 mps 757 mmHg 80%
    08:00 +27°C° 0 mm 1 mps 757 mmHg 76%
    09:00 +28°C° 0 mm 2 mps 757 mmHg 73%
    10:00 +29°C° 0 mm 2 mps 757 mmHg 70%
    11:00 +30°C° 0 mm 3 mps 757 mmHg 67%
    12:00 +30°C° 0 mm 4 mps 757 mmHg 65%
    13:00 +32°C° 0 mm 4 mps 756 mmHg 62%
    14:00 +32°C° 0 mm 5 mps 756 mmHg 62%
    15:00 +30°C° 0 mm 5 mps 756 mmHg 61%
    16:00 +30°C° 0 mm 5 mps 756 mmHg 61%
    17:00 +29°C° 0 mm 5 mps 756 mmHg 66%
    18:00 +28°C° 0 mm 4 mps 757 mmHg 71%
    19:00 +27°C° 0 mm 3 mps 757 mmHg 77%
    20:00 +26°C° 0 mm 3 mps 758 mmHg 77%
    21:00 +26°C° 0 mm 3 mps 758 mmHg 77%
    22:00 +26°C° 0 mm 2 mps 759 mmHg 77%
    23:00 +26°C° 0 mm 2 mps 759 mmHg 77%

    21 December, Thursday

    Time Temperature Precipitation Wind Pressure Humidity
    00:00 +26°C° 0 mm 2 mps 758 mmHg 78%
    01:00 +26°C° 0 mm 2 mps 758 mmHg 78%
    02:00 +26°C° 0 mm 2 mps 758 mmHg 79%
    03:00 +25°C° 0 mm 2 mps 758 mmHg 80%
    04:00 +25°C° 0 mm 2 mps 758 mmHg 80%
    05:00 +25°C° 0 mm 2 mps 758 mmHg 80%
    06:00 +26°C° 0 mm 2 mps 758 mmHg 79%
    07:00 +26°C° 0 mm 2 mps 759 mmHg 78%
    08:00 +27°C° 0 mm 2 mps 759 mmHg 71%
    09:00 +29°C° 0 mm 2 mps 759 mmHg 64%
    10:00 +31°C° 0 mm 2 mps 759 mmHg 56%
    11:00 +33°C° 0 mm 3 mps 758 mmHg 52%
    12:00 +34°C° 0 mm 4 mps 757 mmHg 48%
    13:00 +36°C° 0 mm 5 mps 757 mmHg 45%
    14:00 +35°C° 0 mm 6 mps 757 mmHg 47%
    15:00 +34°C° 0 mm 6 mps 756 mmHg 50%
    16:00 +33°C° 0 mm 6 mps 756 mmHg 53%
    17:00 +30°C° 0 mm 6 mps 756 mmHg 59%
    18:00 +29°C° 0 mm 5 mps 757 mmHg 65%
    19:00 +27°C° 0 mm 5 mps 758 mmHg 71%
    20:00 +27°C° 0 mm 4 mps 758 mmHg 72%
    21:00 +26°C° 0 mm 3 mps 759 mmHg 74%
    22:00 +26°C° 0 mm 3 mps 759 mmHg 76%
    23:00 +26°C° 0 mm 3 mps 759 mmHg 77%
    Show more